Time,TemperatureF,DewpointF,PressureIn,WindDirection,WindDirectionDegrees,WindSpeedMPH,WindSpeedGustMPH,Humidity,HourlyPrecipIn,Conditions,Clouds,dailyrainin,SoftwareType,DateUTC
2013-01-07 00:02:00,30.0,10.0,-100.00,South,172,18.0,21.0,42,0.00,,,-99.99,,2013-01-07 00:02:00,
2013-01-07 00:12:00,30.0,9.0,-100.00,SSE,164,18.0,21.0,41,0.00,,,-99.99,,2013-01-07 00:12:00,
2013-01-07 00:23:00,30.0,8.0,-100.00,SSE,165,15.0,18.0,38,0.00,,,-99.99,,2013-01-07 00:23:00,
2013-01-07 00:32:00,29.0,8.0,-100.00,South,176,11.0,16.0,40,0.00,,,-99.99,,2013-01-07 00:32:00,
2013-01-07 00:42:00,29.0,7.0,-100.00,South,176,9.0,13.0,38,0.00,,,-99.99,,2013-01-07 00:42:00,
2013-01-07 00:52:00,28.0,7.0,-100.00,NE,37,2.0,6.0,41,0.00,,,-99.99,,2013-01-07 00:52:00,
2013-01-07 01:02:00,26.0,6.0,-100.00,NNW,330,2.0,4.0,41,0.00,,,-99.99,,2013-01-07 01:02:00,
2013-01-07 01:12:00,31.0,4.0,-100.00,SSW,200,6.0,21.0,31,0.00,,,-99.99,,2013-01-07 01:12:00,
2013-01-07 01:22:00,32.0,2.0,-100.00,South,169,6.0,19.0,28,0.00,,,-99.99,,2013-01-07 01:22:00,
2013-01-07 01:32:00,32.0,3.0,-100.00,SSE,162,7.0,14.0,28,0.00,,,-99.99,,2013-01-07 01:32:00,
2013-01-07 01:42:00,32.0,3.0,-100.00,SSE,168,9.0,17.0,29,0.00,,,-99.99,,2013-01-07 01:42:00,
2013-01-07 01:52:00,31.0,5.0,-100.00,South,172,10.0,19.0,32,0.00,,,-99.99,,2013-01-07 01:52:00,
2013-01-07 02:02:00,31.0,4.0,-100.00,South,185,11.0,19.0,32,0.00,,,-99.99,,2013-01-07 02:02:00,
2013-01-07 02:12:00,31.0,4.0,-100.00,South,184,9.0,13.0,30,0.00,,,-99.99,,2013-01-07 02:12:00,
2013-01-07 02:22:00,31.0,5.0,-100.00,South,184,9.0,14.0,34,0.00,,,-99.99,,2013-01-07 02:22:00,
2013-01-07 02:32:00,30.0,6.0,-100.00,South,178,11.0,14.0,36,0.00,,,-99.99,,2013-01-07 02:32:00,
2013-01-07 02:42:00,29.0,8.0,-100.00,South,169,12.0,14.0,40,0.00,,,-99.99,,2013-01-07 02:42:00,
2013-01-07 02:52:00,29.0,8.0,-100.00,South,179,14.0,16.0,39,0.00,,,-99.99,,2013-01-07 02:52:00,
2013-01-07 03:02:00,29.0,6.0,-100.00,South,176,13.0,17.0,37,0.00,,,-99.99,,2013-01-07 03:02:00,
2013-01-07 03:12:00,30.0,7.0,-100.00,South,174,16.0,20.0,36,0.00,,,-99.99,,2013-01-07 03:12:00,
2013-01-07 03:22:00,30.0,5.0,-100.00,South,185,19.0,24.0,34,0.00,,,-99.99,,2013-01-07 03:22:00,
2013-01-07 03:32:00,31.0,4.0,-100.00,South,191,18.0,22.0,32,0.00,,,-99.99,,2013-01-07 03:32:00,
2013-01-07 03:42:00,31.0,4.0,-100.00,SSW,192,17.0,21.0,31,0.00,,,-99.99,,2013-01-07 03:42:00,
2013-01-07 03:52:00,31.0,4.0,-100.00,SSW,195,15.0,20.0,31,0.00,,,-99.99,,2013-01-07 03:52:00,
2013-01-07 04:02:00,30.0,3.0,-100.00,SSW,200,15.0,21.0,31,0.00,,,-99.99,,2013-01-07 04:02:00,
2013-01-07 04:12:00,30.0,4.0,-100.00,SSW,205,13.0,21.0,32,0.00,,,-99.99,,2013-01-07 04:12:00,
2013-01-07 04:22:00,29.0,2.0,-100.00,SW,215,11.0,16.0,30,0.00,,,-99.99,,2013-01-07 04:22:00,
2013-01-07 04:32:00,30.0,3.0,-100.00,SW,223,11.0,18.0,31,0.00,,,-99.99,,2013-01-07 04:32:00,
2013-01-07 04:42:00,31.0,3.0,-100.00,SSW,212,9.0,14.0,30,0.00,,,-99.99,,2013-01-07 04:42:00,
2013-01-07 04:52:00,29.0,3.0,-100.00,SW,233,6.0,16.0,32,0.00,,,-99.99,,2013-01-07 04:52:00,
2013-01-07 05:02:00,29.0,3.0,-100.00,WSW,243,12.0,21.0,32,0.00,,,-99.99,,2013-01-07 05:02:00,
2013-01-07 05:12:00,30.0,2.0,-100.00,SW,232,13.0,22.0,29,0.00,,,-99.99,,2013-01-07 05:12:00,
2013-01-07 05:22:00,31.0,3.0,-100.00,SSW,210,14.0,22.0,30,0.00,,,-99.99,,2013-01-07 05:22:00,
2013-01-07 05:32:00,29.0,5.0,-100.00,SSW,195,14.0,18.0,35,0.00,,,-99.99,,2013-01-07 05:32:00,
2013-01-07 05:42:00,28.0,3.0,-100.00,SSW,195,12.0,18.0,34,0.00,,,-99.99,,2013-01-07 05:42:00,
2013-01-07 05:52:00,29.0,4.0,-100.00,SSW,209,14.0,18.0,33,0.00,,,-99.99,,2013-01-07 05:52:00,
2013-01-07 06:02:00,30.0,2.0,-100.00,SW,216,16.0,21.0,30,0.00,,,-99.99,,2013-01-07 06:02:00,
2013-01-07 06:12:00,31.0,1.0,-100.00,SSW,192,16.0,23.0,28,0.00,,,-99.99,,2013-01-07 06:12:00,
2013-01-07 06:22:00,31.0,2.0,-100.00,South,188,21.0,27.0,28,0.00,,,-99.99,,2013-01-07 06:22:00,
2013-01-07 06:32:00,33.0,1.0,-100.00,South,169,20.0,30.0,25,0.00,,,-99.99,,2013-01-07 06:32:00,
2013-01-07 06:42:00,33.0,2.0,-100.00,SSE,160,16.0,30.0,25,0.00,,,-99.99,,2013-01-07 06:42:00,
2013-01-07 06:52:00,35.0,4.0,-100.00,South,181,17.0,30.0,27,0.00,,,-99.99,,2013-01-07 06:52:00,
2013-01-07 07:02:00,34.0,3.0,-100.00,SSE,168,17.0,27.0,27,0.00,,,-99.99,,2013-01-07 07:02:00,
2013-01-07 07:12:00,33.0,3.0,-100.00,South,182,15.0,27.0,27,0.00,,,-99.99,,2013-01-07 07:12:00,
2013-01-07 07:22:00,33.0,4.0,-100.00,South,176,15.0,28.0,28,0.00,,,-99.99,,2013-01-07 07:22:00,
2013-01-07 07:32:00,32.0,4.0,-100.00,SSE,161,14.0,23.0,30,0.00,,,-99.99,,2013-01-07 07:32:00,
2013-01-07 07:42:00,32.0,2.0,-100.00,SSE,147,21.0,30.0,27,0.00,,,-99.99,,2013-01-07 07:42:00,
2013-01-07 07:52:00,32.0,2.0,-100.00,SSE,154,18.0,30.0,27,0.00,,,-99.99,,2013-01-07 07:52:00,
2013-01-07 08:02:00,32.0,2.0,-100.00,SSE,164,16.0,27.0,27,0.00,,,-99.99,,2013-01-07 08:02:00,
2013-01-07 08:12:00,31.0,3.0,-100.00,SSE,158,15.0,27.0,30,0.00,,,-99.99,,2013-01-07 08:12:00,
2013-01-07 08:22:00,30.0,4.0,-100.00,SSE,157,24.0,35.0,32,0.00,,,-99.99,,2013-01-07 08:22:00,
2013-01-07 08:32:00,27.0,4.0,-100.00,SSE,161,31.0,40.0,37,0.00,,,-99.99,,2013-01-07 08:32:00,
2013-01-07 08:42:00,27.0,3.0,-100.00,SSE,161,33.0,40.0,35,0.00,,,-99.99,,2013-01-07 08:42:00,
2013-01-07 08:52:00,26.0,4.0,-100.00,SSE,160,32.0,39.0,38,0.00,,,-99.99,,2013-01-07 08:52:00,
2013-01-07 09:02:00,26.0,4.0,-100.00,SSE,160,32.0,37.0,39,0.00,,,-99.99,,2013-01-07 09:02:00,
2013-01-07 09:12:00,26.0,4.0,-100.00,SSE,161,33.0,40.0,38,0.00,,,-99.99,,2013-01-07 09:12:00,
2013-01-07 09:22:00,27.0,4.0,-100.00,SSE,164,32.0,38.0,37,0.00,,,-99.99,,2013-01-07 09:22:00,
2013-01-07 09:32:00,26.0,4.0,-100.00,SSE,165,29.0,34.0,37,0.00,,,-99.99,,2013-01-07 09:32:00,
2013-01-07 09:52:00,30.0,1.0,-100.00,SSE,154,34.0,40.0,29,0.00,,,-99.99,,2013-01-07 09:52:00,
2013-01-07 10:02:00,30.0,0.0,-100.00,SSE,154,35.0,41.0,27,0.00,,,-99.99,,2013-01-07 10:02:00,
2013-01-07 10:12:00,31.0,2.0,-100.00,SSE,154,37.0,44.0,28,0.00,,,-99.99,,2013-01-07 10:12:00,
2013-01-07 10:22:00,30.0,1.0,-100.00,SSE,151,34.0,40.0,29,0.00,,,-99.99,,2013-01-07 10:22:00,
2013-01-07 10:32:00,29.0,1.0,-100.00,SSE,148,32.0,40.0,29,0.00,,,-99.99,,2013-01-07 10:32:00,
2013-01-07 10:42:00,30.0,0.0,-100.00,SSE,148,32.0,39.0,28,0.00,,,-99.99,,2013-01-07 10:42:00,
2013-01-07 10:52:00,30.0,2.0,-100.00,SSE,150,30.0,35.0,29,0.00,,,-99.99,,2013-01-07 10:52:00,
2013-01-07 11:02:00,30.0,1.0,-100.00,SSE,148,29.0,37.0,28,0.00,,,-99.99,,2013-01-07 11:02:00,
2013-01-07 11:12:00,30.0,2.0,-100.00,SSE,148,29.0,36.0,30,0.00,,,-99.99,,2013-01-07 11:12:00,
2013-01-07 11:22:00,29.0,1.0,-100.00,SE,145,25.0,31.0,31,0.00,,,-99.99,,2013-01-07 11:22:00,
2013-01-07 11:32:00,29.0,1.0,-100.00,SE,141,26.0,30.0,29,0.00,,,-99.99,,2013-01-07 11:32:00,
2013-01-07 11:43:00,29.0,0.0,-100.00,SE,141,26.0,34.0,28,0.00,,,-99.99,,2013-01-07 11:43:00,
2013-01-07 11:52:00,30.0,-1.0,-100.00,SE,137,27.0,34.0,26,0.00,,,-99.99,,2013-01-07 11:52:00,
2013-01-07 12:02:00,30.0,-1.0,-100.00,SE,137,28.0,36.0,26,0.00,,,-99.99,,2013-01-07 12:02:00,
2013-01-07 12:12:00,30.0,-1.0,-100.00,SE,137,28.0,34.0,26,0.00,,,-99.99,,2013-01-07 12:12:00,
2013-01-07 12:22:00,30.0,-2.0,-100.00,SE,138,29.0,37.0,25,-99.99,,,-99.99,,2013-01-07 12:22:00,
2013-01-07 12:32:00,30.0,-1.0,-100.00,SE,140,29.0,39.0,26,0.00,,,-99.99,,2013-01-07 12:32:00,
2013-01-07 12:43:00,29.0,-2.0,-100.00,SE,140,28.0,34.0,25,0.00,,,-99.99,,2013-01-07 12:43:00,
2013-01-07 12:52:00,29.0,-1.0,-100.00,SE,138,28.0,35.0,27,0.00,,,-99.99,,2013-01-07 12:52:00,
2013-01-07 13:02:00,29.0,0.0,-100.00,SE,140,27.0,34.0,28,0.00,,,-99.99,,2013-01-07 13:02:00,
2013-01-07 13:12:00,28.0,-1.0,-100.00,SE,141,27.0,32.0,28,0.00,,,-99.99,,2013-01-07 13:12:00,
2013-01-07 13:23:00,-999.0,-99.9,-100.00,SE,141,27.0,34.0,-999,-99.99,,,-99.99,,2013-01-07 13:23:00,
2013-01-07 13:33:00,29.0,-2.0,-100.00,SE,141,29.0,36.0,26,0.00,,,-99.99,,2013-01-07 13:33:00,
2013-01-07 13:43:00,-999.0,-99.9,-100.00,SE,143,28.0,34.0,-999,-99.99,,,-99.99,,2013-01-07 13:43:00,
2013-01-07 13:52:00,27.0,0.0,-100.00,SE,143,28.0,35.0,30,0.00,,,-99.99,,2013-01-07 13:52:00,
2013-01-07 14:03:00,27.0,-1.0,-100.00,SE,144,28.0,35.0,28,0.00,,,-99.99,,2013-01-07 14:03:00,
2013-01-07 14:12:00,27.0,0.0,-100.00,SE,145,28.0,35.0,31,0.00,,,-99.99,,2013-01-07 14:12:00,
2013-01-07 14:22:00,27.0,0.0,-100.00,SSE,147,28.0,33.0,30,0.00,,,-99.99,,2013-01-07 14:22:00,
2013-01-07 14:33:00,26.0,-1.0,-100.00,SE,145,29.0,35.0,29,0.00,,,-99.99,,2013-01-07 14:33:00,
2013-01-07 14:42:00,27.0,-1.0,-100.00,SE,144,29.0,35.0,30,0.00,,,-99.99,,2013-01-07 14:42:00,
2013-01-07 14:53:00,26.0,-1.0,-100.00,SE,143,29.0,34.0,31,0.00,,,-99.99,,2013-01-07 14:53:00,
2013-01-07 15:03:00,27.0,-2.0,-100.00,SE,144,26.0,34.0,28,0.00,,,-99.99,,2013-01-07 15:03:00,
2013-01-07 15:12:00,28.0,-1.0,-100.00,SE,141,27.0,35.0,28,0.00,,,-99.99,,2013-01-07 15:12:00,
2013-01-07 15:22:00,29.0,-3.0,-100.00,SE,140,29.0,37.0,24,0.00,,,-99.99,,2013-01-07 15:22:00,
2013-01-07 15:33:00,29.0,-2.0,-100.00,SE,140,28.0,35.0,26,0.00,,,-99.99,,2013-01-07 15:33:00,
2013-01-07 15:42:00,28.0,-2.0,-100.00,SE,144,27.0,34.0,27,0.00,,,-99.99,,2013-01-07 15:42:00,
2013-01-07 15:53:00,29.0,-2.0,-100.00,SSE,147,26.0,32.0,25,0.00,,,-99.99,,2013-01-07 15:53:00,
2013-01-07 16:02:00,29.0,0.0,-100.00,SSE,155,23.0,30.0,28,0.00,,,-99.99,,2013-01-07 16:02:00,
2013-01-07 16:12:00,28.0,0.0,-100.00,SSE,158,20.0,28.0,30,0.00,,,-99.99,,2013-01-07 16:12:00,
2013-01-07 16:22:00,29.0,-1.0,-100.00,SSE,155,14.0,20.0,27,0.00,,,-99.99,,2013-01-07 16:22:00,
2013-01-07 16:33:00,30.0,1.0,-100.00,SSE,150,17.0,22.0,29,0.00,,,-99.99,,2013-01-07 16:33:00,
2013-01-07 16:43:00,30.0,0.0,-100.00,SSE,148,19.0,24.0,27,0.00,,,-99.99,,2013-01-07 16:43:00,
2013-01-07 16:53:00,31.0,-2.0,-100.00,SE,141,22.0,30.0,24,0.00,,,-99.99,,2013-01-07 16:53:00,
2013-01-07 17:02:00,32.0,-3.0,-100.00,SE,137,25.0,32.0,22,0.00,,,-99.99,,2013-01-07 17:02:00,
2013-01-07 17:12:00,-999.0,-99.9,-100.00,SE,140,26.0,32.0,-999,-99.99,,,-99.99,,2013-01-07 17:12:00,
2013-01-07 17:22:00,33.0,-2.0,-100.00,SE,145,27.0,34.0,22,0.00,,,-99.99,,2013-01-07 17:22:00,
2013-01-07 17:33:00,33.0,-1.0,-100.00,SE,145,26.0,31.0,23,0.00,,,-99.99,,2013-01-07 17:33:00,
2013-01-07 17:42:00,33.0,0.0,-100.00,SSE,147,24.0,30.0,24,0.00,,,-99.99,,2013-01-07 17:42:00,
2013-01-07 17:52:00,32.0,4.0,-100.00,SSE,162,16.0,20.0,30,0.00,,,-99.99,,2013-01-07 17:52:00,
2013-01-07 18:02:00,32.0,4.0,-100.00,SSE,167,14.0,18.0,30,0.00,,,-99.99,,2013-01-07 18:02:00,
2013-01-07 18:12:00,32.0,4.0,-100.00,SSE,165,13.0,17.0,30,0.00,,,-99.99,,2013-01-07 18:12:00,
2013-01-07 18:23:00,33.0,5.0,-100.00,SSE,154,18.0,23.0,31,0.00,,,-99.99,,2013-01-07 18:23:00,
2013-01-07 18:32:00,33.0,5.0,-100.00,SSE,158,21.0,26.0,30,0.00,,,-99.99,,2013-01-07 18:32:00,
2013-01-07 18:42:00,33.0,8.0,-100.00,SSE,158,18.0,23.0,34,0.00,,,-99.99,,2013-01-07 18:42:00,
2013-01-07 18:52:00,33.0,4.0,-100.00,SSE,152,15.0,19.0,29,0.00,,,-99.99,,2013-01-07 18:52:00,
2013-01-07 19:03:00,33.0,6.0,-100.00,SSE,155,14.0,18.0,31,0.00,,,-99.99,,2013-01-07 19:03:00,
2013-01-07 19:12:00,33.0,7.0,-100.00,SSE,161,13.0,17.0,33,0.00,,,-99.99,,2013-01-07 19:12:00,
2013-01-07 19:22:00,34.0,5.0,-100.00,South,171,11.0,15.0,29,0.00,,,-99.99,,2013-01-07 19:22:00,
2013-01-07 19:33:00,34.0,6.0,-100.00,South,178,9.0,14.0,31,0.00,,,-99.99,,2013-01-07 19:33:00,
2013-01-07 19:42:00,34.0,6.0,-100.00,South,178,9.0,14.0,31,0.00,,,-99.99,,2013-01-07 19:42:00,
2013-01-07 19:52:00,34.0,7.0,-100.00,SSE,167,12.0,20.0,32,0.00,,,-99.99,,2013-01-07 19:52:00,
2013-01-07 20:03:00,33.0,4.0,-100.00,SSE,157,17.0,23.0,28,0.00,,,-99.99,,2013-01-07 20:03:00,
2013-01-07 20:12:00,33.0,4.0,-100.00,SE,141,19.0,24.0,30,0.00,,,-99.99,,2013-01-07 20:12:00,
2013-01-07 20:23:00,33.0,3.0,-100.00,SE,141,18.0,24.0,28,0.00,,,-99.99,,2013-01-07 20:23:00,
2013-01-07 20:33:00,32.0,7.0,-100.00,SSE,148,16.0,23.0,34,0.00,,,-99.99,,2013-01-07 20:33:00,
2013-01-07 20:43:00,-999.0,-99.9,-100.00,SSE,150,16.0,21.0,-999,-99.99,,,-99.99,,2013-01-07 20:43:00,
2013-01-07 20:52:00,32.0,7.0,-100.00,SSE,150,18.0,23.0,34,0.00,,,-99.99,,2013-01-07 20:52:00,
2013-01-07 21:02:00,33.0,6.0,-100.00,SSE,152,18.0,23.0,32,0.00,,,-99.99,,2013-01-07 21:02:00,
2013-01-07 21:12:00,33.0,8.0,-100.00,SSE,157,17.0,23.0,34,0.00,,,-99.99,,2013-01-07 21:12:00,
2013-01-07 21:22:00,32.0,6.0,-100.00,SSE,152,20.0,24.0,32,0.00,,,-99.99,,2013-01-07 21:22:00,
2013-01-07 21:32:00,32.0,6.0,-100.00,SSE,154,21.0,26.0,33,0.00,,,-99.99,,2013-01-07 21:32:00,
2013-01-07 21:42:00,31.0,8.0,-100.00,SSE,155,20.0,24.0,37,0.00,,,-99.99,,2013-01-07 21:42:00,
2013-01-07 21:52:00,31.0,6.0,-100.00,SSE,151,17.0,21.0,34,0.00,,,-99.99,,2013-01-07 21:52:00,
2013-01-07 22:02:00,32.0,6.0,-100.00,SSE,155,19.0,22.0,34,0.00,,,-99.99,,2013-01-07 22:02:00,
2013-01-07 22:12:00,31.0,7.0,-100.00,SSE,160,19.0,22.0,35,0.00,,,-99.99,,2013-01-07 22:12:00,
2013-01-07 22:22:00,31.0,7.0,-100.00,SSE,157,21.0,26.0,36,0.00,,,-99.99,,2013-01-07 22:22:00,
2013-01-07 22:33:00,31.0,7.0,-100.00,SSE,151,22.0,26.0,35,0.00,,,-99.99,,2013-01-07 22:33:00,
2013-01-07 22:42:00,32.0,4.0,-100.00,SSE,150,20.0,26.0,30,0.00,,,-99.99,,2013-01-07 22:42:00,
2013-01-07 22:52:00,31.0,4.0,-100.00,SE,133,17.0,26.0,31,0.00,,,-99.99,,2013-01-07 22:52:00,
2013-01-07 23:02:00,31.0,5.0,-100.00,ESE,120,17.0,24.0,34,0.00,,,-99.99,,2013-01-07 23:02:00,
2013-01-07 23:12:00,29.0,7.0,-100.00,ESE,114,19.0,26.0,38,0.00,,,-99.99,,2013-01-07 23:12:00,
2013-01-07 23:22:00,29.0,6.0,-100.00,SE,124,20.0,27.0,37,0.00,,,-99.99,,2013-01-07 23:22:00,
2013-01-07 23:32:00,30.0,7.0,-100.00,ESE,109,17.0,24.0,38,0.00,,,-99.99,,2013-01-07 23:32:00,
2013-01-07 23:42:00,30.0,8.0,-100.00,ESE,121,16.0,22.0,38,0.00,,,-99.99,,2013-01-07 23:42:00,
2013-01-07 23:52:00,30.0,9.0,-100.00,SE,134,14.0,24.0,40,0.00,,,-99.99,,2013-01-07 23:52:00,